Hailey, ID

1:26 AM MST on February 24, 2018 (GMT -0700)
Friedman Memorial

Weather History for KSUN - May, 2013

Change the Weather History Date:

Wednesday, May 1, 2013

  Actual Average Record
Temperature  
Mean Temperature 40 °F -  
Max Temperature 51 °F 59 °F 80 °F (2001)
Min Temperature 28 °F 34 °F 24 °F (1997)
Degree Days  
Heating Degree Days 26    
Moisture  
Dew Point 10 °F    
Average Humidity 37    
Maximum Humidity 56    
Minimum Humidity 13    
Precipitation  
Precipitation 0.00 in - - ()
Sea Level Pressure  
Sea Level Pressure 30.32 in    
Wind  
Wind Speed 8 mph (NW)    
Max Wind Speed 14 mph    
Max Gust Speed 20 mph    
Visibility 10 miles    
Events      
Averages and records for this station are not official NWS values.
T = Trace of Precipitation, MM = Missing Value Source: NWS Daily Summary

Daily Weather History Graph

Daily Weather History Graph

Search for Another Location

Airport or City:

Trip Planner

Search our weather history database for the weather conditions in past years. The results will help you decide how hot, cold, wet, or windy it might be!

Date:

Astronomy

May. 01, 2013 Rise Set
Actual Time 6:29 AM MDT 8:39 PM MDT
Civil Twilight 5:58 AM MDT 9:11 PM MDT
Nautical Twilight 5:19 AM MDT 9:50 PM MDT
Astronomical Twilight 4:36 AM MDT 10:33 PM MDT
Moon 1:52 AM MDT (5/1) 12:12 PM MDT (5/1)
Length of Visible Light 15h 13m
Length of Day
14h 10m
Waning Gibbous, 58% of the Moon is Illuminated
May 1
Waning Gibbous
May 2
Last Quarter
May 9
New
May 17
First Quarter
May 24
Full

Hourly Weather History & Observations

Time (MDT) Temp. Windchill Dew Point Humidity Pressure Visibility Wind Dir Wind Speed Gust Speed Precip Events Conditions
12:35 AM 33.8 °F 26.4 °F 17.6 °F 52% 30.12 in 10.0 mi NW 9.2 mph 19.6 mph N/A   Clear
12:55 AM 33.8 °F 24.8 °F 19.4 °F 56% 30.14 in 10.0 mi NNW 12.7 mph - N/A   Clear
1:15 AM 33.8 °F 25.8 °F 19.4 °F 56% 30.15 in 10.0 mi NW 10.4 mph - N/A   Clear
1:35 AM 32.0 °F 24.2 °F 14.0 °F 48% 30.16 in 10.0 mi NNW 9.2 mph 16.1 mph N/A   Clear
1:55 AM 32.0 °F 26.4 °F 12.2 °F 44% 30.17 in 10.0 mi NNW 5.8 mph - N/A   Clear
2:15 AM 32.0 °F 27.5 °F 12.2 °F 44% 30.18 in 10.0 mi NW 4.6 mph - N/A   Clear
2:35 AM 32.0 °F 23.6 °F 8.6 °F 38% 30.18 in 10.0 mi NNW 10.4 mph 17.3 mph N/A   Clear
2:55 AM 32.0 °F 24.2 °F 8.6 °F 38% 30.19 in 10.0 mi NNW 9.2 mph - N/A   Clear
3:15 AM 32.0 °F 27.5 °F 8.6 °F 38% 30.20 in 10.0 mi North 4.6 mph - N/A   Clear
3:35 AM 30.2 °F 25.4 °F 8.6 °F 40% 30.21 in 10.0 mi North 4.6 mph - N/A   Clear
3:55 AM 30.2 °F 24.3 °F 8.6 °F 40% 30.22 in 10.0 mi NNW 5.8 mph - N/A   Clear
4:15 AM 30.2 °F 23.4 °F 8.6 °F 40% 30.22 in 10.0 mi NW 6.9 mph - N/A   Clear
4:35 AM 30.2 °F 23.4 °F 8.6 °F 40% 30.24 in 10.0 mi NNW 6.9 mph - N/A   Clear
4:55 AM 30.2 °F 22.6 °F 8.6 °F 40% 30.24 in 10.0 mi NNW 8.1 mph - N/A   Clear
5:15 AM 30.2 °F 21.9 °F 8.6 °F 40% 30.25 in 10.0 mi NNW 9.2 mph - N/A   Clear
5:35 AM 28.4 °F 21.2 °F 8.6 °F 43% 30.26 in 10.0 mi NNW 6.9 mph - N/A   Clear
5:55 AM 28.4 °F 21.2 °F 8.6 °F 43% 30.27 in 10.0 mi NNW 6.9 mph - N/A   Clear
6:15 AM 28.4 °F 21.2 °F 8.6 °F 43% 30.28 in 10.0 mi NNW 6.9 mph - N/A   Clear
6:35 AM 28.4 °F 20.4 °F 8.6 °F 43% 30.29 in 10.0 mi NNW 8.1 mph - N/A   Clear
6:47 AM 28.4 °F 21.2 °F 6.8 °F 40% 30.30 in 10.0 mi NW 6.9 mph - N/A   Partly Cloudy
6:55 AM 30.2 °F 23.4 °F 8.6 °F 40% 30.30 in 10.0 mi North 6.9 mph - N/A   Clear
7:47 AM 28.4 °F 22.2 °F 6.8 °F 40% 30.34 in 10.0 mi NW 5.8 mph - N/A   Clear
10:47 AM 39.2 °F 32.0 °F 6.8 °F 26% 30.39 in 10.0 mi NW 11.5 mph - N/A   Partly Cloudy
11:47 AM 42.8 °F - 3.2 °F 19% 30.40 in 10.0 mi Calm Calm - N/A   Partly Cloudy
12:47 PM 44.6 °F 39.7 °F 1.4 °F 17% 30.40 in 10.0 mi West 9.2 mph - N/A   Partly Cloudy
1:55 PM 46.4 °F 43.5 °F 1.4 °F 16% 30.41 in 10.0 mi NW 5.8 mph - N/A   Partly Cloudy
2:47 PM 48.2 °F - 1.4 °F 15% 30.41 in 10.0 mi NW 13.8 mph - N/A   Partly Cloudy
5:04 PM 51.8 °F - 1.4 °F 13% 30.41 in 10.0 mi NNE 9.2 mph - N/A   Partly Cloudy
5:47 PM 51.8 °F - 10.4 °F 19% 30.42 in 10.0 mi ESE 13.8 mph - N/A   Partly Cloudy
6:50 PM 50.0 °F - 12.2 °F 22% 30.45 in 10.0 mi SW 8.1 mph - N/A   Clear
7:47 PM 46.4 °F 42.4 °F 12.2 °F 25% 30.46 in 10.0 mi South 8.1 mph - N/A   Clear
9:47 PM 39.2 °F 35.9 °F 15.8 °F 39% 30.53 in 10.0 mi South 4.6 mph - N/A   Clear
10:47 PM 37.4 °F - 14.0 °F 38% 30.55 in - Calm Calm - N/A   Clear
11:15 PM 37.4 °F 32.8 °F 14.0 °F 38% 30.56 in 10.0 mi NW 5.8 mph - N/A   Clear
11:35 PM 35.6 °F 28.6 °F 14.0 °F 41% 30.56 in 10.0 mi NW 9.2 mph - N/A   Clear
11:55 PM 33.8 °F 27.0 °F 15.8 °F 48% 30.57 in 10.0 mi WNW 8.1 mph - N/A   Clear